Crossville, TN

1:57 AM CDT on August 18, 2017 (GMT -0500)
Crossville Memorial-Whitson

Weather History for KCSV - April, 2014

Change the Weather History Date:

Thursday, April 3, 2014

  Actual Average Record
Temperature  
Mean Temperature 66 °F 52 °F  
Max Temperature 75 °F 63 °F 81 °F (1963)
Min Temperature 57 °F 42 °F 22 °F (1992)
Degree Days  
Heating Degree Days 0    
Month to date heating degree days  
Since 1 July heating degree days  
Cooling Degree Days 1    
Month to date cooling degree days  
Year to date cooling degree days  
Growing Degree Days 16 (Base 50)    
Moisture  
Dew Point 56 °F    
Average Humidity 80    
Maximum Humidity 93    
Minimum Humidity 48    
Precipitation  
Precipitation 1.13 in 0.17 in 2.12 in (2000)
Month to date precipitation 0.50  
Year to date precipitation 14.70  
Sea Level Pressure  
Sea Level Pressure 29.99 in    
Wind  
Wind Speed 7 mph (South)    
Max Wind Speed 16 mph    
Max Gust Speed 24 mph    
Visibility 7 miles    
Events Fog , Rain , Thunderstorm    
T = Trace of Precipitation, MM = Missing Value Source: NWS Daily Summary

Daily Weather History Graph

Daily Weather History Graph

Search for Another Location

Airport or City:

Trip Planner

Search our weather history database for the weather conditions in past years. The results will help you decide how hot, cold, wet, or windy it might be!

Date:

Astronomy

Apr. 03, 2014 Rise Set
Actual Time 6:23 AM CDT 7:03 PM CDT
Civil Twilight 5:57 AM CDT 7:29 PM CDT
Nautical Twilight 5:27 AM CDT 8:00 PM CDT
Astronomical Twilight 4:56 AM CDT 8:31 PM CDT
Moon 8:58 AM CDT (4/3) 11:16 PM CDT (4/3)
Length of Visible Light 13h 31m
Length of Day
12h 40m
Waxing Crescent, 17% of the Moon is Illuminated
Apr 3
Waxing Crescent
Apr 7
First Quarter
Apr 15
Full
Apr 22
Last Quarter
Apr 29
New

Hourly Weather History & Observations

Time (CDT) Temp. Dew Point Humidity Pressure Visibility Wind Dir Wind Speed Gust Speed Precip Events Conditions
12:53 AM 60.1 °F 55.9 °F 86% 30.04 in 4.0 mi NNW 6.9 mph - 0.02 in Rain Rain
1:33 AM 59.0 °F 55.0 °F 87% 30.08 in 10.0 mi North 6.9 mph - 0.00 in Thunderstorm Overcast
1:45 AM 59.0 °F 55.9 °F 90% 30.09 in 8.0 mi NNW 10.4 mph - 0.00 in Rain , Thunderstorm Light Thunderstorms and Rain
1:53 AM 57.9 °F 55.9 °F 93% 30.04 in 1.5 mi NW 15.0 mph 19.6 mph 0.20 in Rain , Thunderstorm Heavy Thunderstorms and Rain
2:11 AM 59.0 °F 55.9 °F 90% 30.05 in 3.0 mi East 4.6 mph - 0.24 in Rain , Thunderstorm Heavy Thunderstorms and Rain
2:20 AM 57.9 °F 55.9 °F 93% 30.04 in 3.0 mi ESE 6.9 mph - 0.26 in Rain , Thunderstorm Thunderstorms and Rain
2:53 AM 59.0 °F 55.9 °F 90% 30.00 in 5.0 mi Calm Calm - 0.27 in Rain , Thunderstorm Light Thunderstorms and Rain
3:04 AM 59.0 °F 55.9 °F 90% 30.07 in 1.5 mi NW 5.8 mph - 0.12 in Rain , Thunderstorm Heavy Thunderstorms and Rain
3:09 AM 59.0 °F 55.9 °F 90% 30.06 in 0.5 mi WNW 8.1 mph - 0.40 in Fog , Rain , Thunderstorm Heavy Thunderstorms and Rain
3:15 AM 59.0 °F 55.9 °F 90% 30.05 in 0.8 mi Calm Calm - 0.42 in Rain , Thunderstorm Thunderstorms and Rain
3:17 AM 59.0 °F 55.9 °F 90% 30.05 in 1.0 mi SSW 3.5 mph - 0.43 in Rain , Thunderstorm Thunderstorms and Rain
3:23 AM 59.0 °F 55.9 °F 90% 30.05 in 3.0 mi Calm Calm - 0.46 in Rain , Thunderstorm Heavy Thunderstorms and Rain
3:31 AM 59.0 °F 55.9 °F 90% 30.05 in 2.5 mi SSE 3.5 mph - 0.48 in Rain , Thunderstorm Thunderstorms and Rain
3:34 AM 59.0 °F 55.9 °F 90% 30.06 in 1.8 mi SSW 4.6 mph - 0.58 in Rain , Thunderstorm Rain
3:46 AM 57.9 °F 55.9 °F 93% 30.04 in 3.0 mi Variable 3.5 mph - 0.64 in Rain , Thunderstorm Light Thunderstorms and Rain
3:53 AM 59.0 °F 55.9 °F 90% 30.02 in 10.0 mi NW 16.1 mph - 0.64 in Thunderstorm Thunderstorm
4:00 AM 59.0 °F 55.9 °F 90% 30.08 in 10.0 mi NW 8.1 mph - N/A Thunderstorm Overcast
4:16 AM 59.0 °F 55.9 °F 90% 30.06 in 10.0 mi NE 5.8 mph - 0.00 in Rain Light Rain
4:31 AM 59.0 °F 55.9 °F 90% 30.05 in 9.0 mi SE 5.8 mph - 0.00 in   Overcast
4:43 AM 59.0 °F 55.9 °F 90% 30.05 in 9.0 mi ESE 3.5 mph - 0.00 in   Overcast
4:53 AM 59.0 °F 55.9 °F 90% 30.00 in 9.0 mi SE 3.5 mph - 0.00 in   Overcast
5:28 AM 57.9 °F 55.9 °F 93% 30.06 in 5.0 mi Variable 4.6 mph - N/A   Overcast
5:39 AM 57.9 °F 55.9 °F 93% 30.06 in 5.0 mi Calm Calm - N/A   Overcast
5:46 AM 57.9 °F 55.9 °F 93% 30.05 in 4.0 mi NE 6.9 mph - N/A   Overcast
5:53 AM 57.9 °F 55.9 °F 93% 30.00 in 4.0 mi Variable 4.6 mph - 0.00 in Rain Light Rain
6:14 AM 57.9 °F 55.9 °F 93% 30.05 in 4.0 mi SE 3.5 mph - 0.00 in   Overcast
6:53 AM 57.9 °F 55.9 °F 93% 30.01 in 4.0 mi SE 3.5 mph - 0.00 in   Overcast
7:24 AM 57.9 °F 55.9 °F 93% 30.02 in 10.0 mi Calm Calm - N/A   Scattered Clouds
7:53 AM 61.0 °F 55.9 °F 83% 29.99 in 10.0 mi Calm Calm - N/A   Clear
8:53 AM 64.0 °F 57.0 °F 78% 29.98 in 10.0 mi Variable 4.6 mph - N/A   Scattered Clouds
9:53 AM 68.0 °F 57.0 °F 68% 29.96 in 10.0 mi South 10.4 mph 17.3 mph N/A   Mostly Cloudy
10:35 AM 69.1 °F 57.0 °F 65% 30.00 in 10.0 mi South 10.4 mph 23.0 mph N/A   Mostly Cloudy
10:42 AM 68.0 °F 55.9 °F 65% 30.00 in 10.0 mi SSW 11.5 mph 21.9 mph N/A   Mostly Cloudy
10:53 AM 69.1 °F 55.9 °F 63% 29.95 in 10.0 mi SSW 12.7 mph 24.2 mph N/A   Scattered Clouds
11:53 AM 72.0 °F 54.0 °F 53% 29.93 in 10.0 mi South 9.2 mph 19.6 mph N/A   Scattered Clouds
12:53 PM 73.0 °F 55.9 °F 55% 29.91 in 10.0 mi South 10.4 mph 17.3 mph N/A   Scattered Clouds
1:53 PM 71.1 °F 55.9 °F 59% 29.91 in 10.0 mi South 8.1 mph - N/A   Overcast
2:53 PM 73.9 °F 55.9 °F 53% 29.88 in 10.0 mi South 13.8 mph 21.9 mph N/A   Scattered Clouds
3:53 PM 75.0 °F 54.0 °F 48% 29.87 in 10.0 mi SSW 13.8 mph 23.0 mph N/A   Clear
4:53 PM 73.9 °F 53.1 °F 48% 29.85 in 10.0 mi South 10.4 mph 23.0 mph N/A   Clear
5:53 PM 73.0 °F 54.0 °F 51% 29.86 in 10.0 mi South 11.5 mph 17.3 mph N/A   Mostly Cloudy
6:53 PM 71.1 °F 55.0 °F 57% 29.88 in 10.0 mi SSW 9.2 mph 21.9 mph N/A   Mostly Cloudy
7:53 PM 69.1 °F 55.9 °F 63% 29.89 in 10.0 mi South 12.7 mph 18.4 mph N/A   Scattered Clouds
8:53 PM 66.9 °F 55.9 °F 68% 29.90 in 10.0 mi South 8.1 mph - N/A   Clear
10:53 PM 66.0 °F 55.9 °F 70% 29.83 in 10.0 mi Variable 6.9 mph - N/A   Clear
11:53 PM 64.9 °F 55.9 °F 73% 29.84 in 10.0 mi Calm Calm - N/A   Clear